Location: Haliburton Scout Reserve
(45.0900°N, 78.3200°W)
Time: 15:42:29
(UTC-04:00)

JY1SAT - Pass Details

Date: 26 June 2024
Orbit: 536 x 549 km, 97.5° (Epoch: 11 July)

Event Time Altitude Azimuth Distance (km) Brightness Sun altitude
Exits shadow 23:05:28 - 212° (SSW) 2,105 ? -15.4°
Reaches altitude 10° 23:06:22 10° 220° (SW) 1,818 ? -15.5°
Maximum altitude 23:09:16 20° 267° (W) 1,322 ? -15.7°
Drops below altitude 10° 23:12:12 10° 315° (NW) 1,834 ? -16.0°
Sets 23:14:49 0° 333° (NNW) 2,735 ? -16.2°
